Paris / Charles De Gaulle, France

12:10 PM CET on January 22, 2018 (GMT +0100)
Charles de Gaulle

Weather History for LFPG - January, 2014

Change the Weather History Date:

Sunday, January 5, 2014

  Actual Average Record
Temperature  
Mean Temperature 44 °F -  
Max Temperature 48 °F 42 °F 60 °F (1999)
Min Temperature 39 °F 34 °F 21 °F (2003)
Degree Days  
Heating Degree Days 22    
Moisture  
Dew Point 39 °F    
Average Humidity 80    
Maximum Humidity 93    
Minimum Humidity 61    
Precipitation  
Precipitation 0.00 in - - ()
Sea Level Pressure  
Sea Level Pressure 29.74 in    
Wind  
Wind Speed 11 mph ()    
Max Wind Speed 20 mph    
Max Gust Speed -    
Visibility 9.5 miles    
Events Rain    
Averages and records for this station are not official NWS values.
T = Trace of Precipitation, MM = Missing Value Source: Averaged Metar Reports

Daily Weather History Graph

Daily Weather History Graph

Search for Another Location

Airport or City:

Trip Planner

Search our weather history database for the weather conditions in past years. The results will help you decide how hot, cold, wet, or windy it might be!

Date:

Astronomy

Jan. 05, 2014 Rise Set
Actual Time 8:43 AM CET 5:07 PM CET
Civil Twilight 8:06 AM CET 5:44 PM CET
Nautical Twilight 7:26 AM CET 6:24 PM CET
Astronomical Twilight 6:48 AM CET 7:02 PM CET
Moon 10:49 AM CET (1/5) 10:47 PM CET (1/5)
Length of Visible Light 9h 37m
Length of Day
8h 23m
Waxing Crescent, 22% of the Moon is Illuminated
Jan 5
Waxing Crescent
Jan 8
First Quarter
Jan 16
Full
Jan 24
Last Quarter
Jan 30
New

Hourly Weather History & Observations

Time (CET) Temp. Windchill Dew Point Humidity Pressure Visibility Wind Dir Wind Speed Gust Speed Precip Events Conditions
12:00 AM 45 °F - 39 °F 71% 29.57 in 19 mi West 13.8 mph - - Rain Light Rain
12:00 AM 44.6 °F 38.1 °F 39.2 °F 81% 29.56 in 6.2 mi West 13.8 mph - N/A Rain Light Rain
12:30 AM 44.6 °F 38.4 °F 37.4 °F 76% 29.56 in 6.2 mi West 12.7 mph - N/A   Mostly Cloudy
1:00 AM 44 °F - 37 °F 68% 29.60 in 19 mi West 12.7 mph - -   Partly Cloudy
1:00 AM 44.6 °F 38.4 °F 37.4 °F 76% 29.59 in 6.2 mi West 12.7 mph - N/A   Scattered Clouds
1:30 AM 42.8 °F 35.8 °F 37.4 °F 81% 29.59 in 6.2 mi West 13.8 mph - N/A   Partly Cloudy
2:00 AM 42 °F - 36 °F 72% 29.62 in 19 mi West 12.7 mph - -   Scattered Clouds
2:00 AM 42.8 °F 36.2 °F 35.6 °F 76% 29.59 in 6.2 mi West 12.7 mph - N/A   Partly Cloudy
2:30 AM 41.0 °F 35.2 °F 35.6 °F 81% 29.62 in - WSW 9.2 mph - N/A   Clear
3:00 AM 41 °F - 35 °F 73% 29.65 in 19 mi SW 9.2 mph - -  
3:00 AM 41.0 °F 35.2 °F 35.6 °F 81% 29.62 in - SW 9.2 mph - N/A   Clear
3:30 AM 41.0 °F 38.0 °F 35.6 °F 81% 29.65 in - South 4.6 mph - N/A   Clear
4:00 AM 40 °F - 35 °F 75% 29.68 in 19 mi South 8.1 mph - -   Scattered Clouds
4:00 AM 39.2 °F 33.6 °F 35.6 °F 87% 29.65 in 6.2 mi South 8.1 mph - N/A   Partly Cloudy
4:30 AM 39.2 °F 32.5 °F 35.6 °F 87% 29.65 in - South 10.4 mph - N/A   Clear
5:00 AM 40 °F - 36 °F 82% 29.70 in 6 mi SSW 12.7 mph - - Rain Light Rain
5:00 AM 41.0 °F 34.3 °F 35.6 °F 81% 29.68 in 5.6 mi SSW 11.5 mph - N/A Rain Light Rain
5:30 AM 39.2 °F 32.0 °F 37.4 °F 93% 29.68 in 3.7 mi SSW 11.5 mph - N/A Rain Rain
6:00 AM 40 °F - 37 °F 85% 29.70 in 7 mi South 10.4 mph - - Rain Light Rain
6:00 AM 39.2 °F 33.0 °F 37.4 °F 93% 29.68 in 6.2 mi South 9.2 mph - N/A Rain Light Rain
6:30 AM 41.0 °F 35.2 °F 37.4 °F 87% 29.68 in 6.2 mi South 9.2 mph - N/A   Mostly Cloudy
7:00 AM 40 °F - 38 °F 90% 29.72 in 16 mi South 9.2 mph - - Rain Light Rain
7:00 AM 41.0 °F 35.2 °F 37.4 °F 87% 29.68 in 6.2 mi South 9.2 mph - N/A Rain Light Rain
7:30 AM 41.0 °F 35.8 °F 39.2 °F 93% 29.71 in 6.2 mi SSW 8.1 mph - N/A Rain Light Rain
8:00 AM 41 °F - 38 °F 87% 29.74 in 12 mi SSW 9.2 mph - - Rain Light Rain
8:00 AM 41.0 °F 35.2 °F 39.2 °F 93% 29.71 in 6.2 mi SSW 9.2 mph - N/A   Mostly Cloudy
8:30 AM 41.0 °F 34.7 °F 37.4 °F 87% 29.74 in 6.2 mi SSW 10.4 mph - N/A   Scattered Clouds
9:00 AM 40 °F - 37 °F 87% 29.76 in 12 mi SSW 8.1 mph - -   Scattered Clouds
9:00 AM 39.2 °F 34.2 °F 37.4 °F 93% 29.74 in 6.2 mi SSW 6.9 mph - N/A   Partly Cloudy
9:30 AM 41.0 °F 36.4 °F 37.4 °F 87% 29.74 in 6.2 mi South 6.9 mph - N/A   Partly Cloudy
10:00 AM 42 °F - 39 °F 84% 29.79 in 12 mi SSW 6.9 mph - -   Partly Cloudy
10:00 AM 41.0 °F 36.4 °F 39.2 °F 93% 29.77 in 6.2 mi SSW 6.9 mph - N/A   Partly Cloudy
10:30 AM 42.8 °F 39.3 °F 41.0 °F 93% 29.77 in 6.2 mi SSW 5.8 mph - N/A   Scattered Clouds
11:00 AM 44 °F - 40 °F 79% 29.81 in 19 mi SW 10.4 mph - -   Partly Cloudy
11:00 AM 44.6 °F 39.2 °F 39.2 °F 81% 29.77 in 6.2 mi SW 10.4 mph - N/A   Mostly Cloudy
11:30 AM 44.6 °F 39.2 °F 39.2 °F 81% 29.77 in 6.2 mi SW 10.4 mph - N/A   Mostly Cloudy
12:00 PM 45 °F - 39 °F 71% 29.81 in 19 mi SW 11.5 mph - -   Scattered Clouds
12:00 PM 44.6 °F 38.8 °F 39.2 °F 81% 29.80 in 6.2 mi SW 11.5 mph - N/A   Mostly Cloudy
12:30 PM 46.4 °F 42.4 °F 39.2 °F 76% 29.80 in 6.2 mi SW 8.1 mph - N/A   Mostly Cloudy
1:00 PM 47 °F - 38 °F 62% 29.80 in 19 mi SSW 10.4 mph - -   Partly Cloudy
1:00 PM 46.4 °F 41.5 °F 39.2 °F 76% 29.77 in 6.2 mi SSW 10.4 mph - N/A   Mostly Cloudy
1:30 PM 46.4 °F 41.1 °F 37.4 °F 71% 29.77 in 6.2 mi South 11.5 mph - N/A   Mostly Cloudy
2:00 PM 47 °F - 38 °F 62% 29.81 in 19 mi South 11.5 mph - -   Scattered Clouds
2:00 PM 46.4 °F 41.1 °F 37.4 °F 71% 29.80 in 6.2 mi South 11.5 mph - N/A   Mostly Cloudy
2:30 PM 46.4 °F 41.5 °F 39.2 °F 76% 29.80 in 6.2 mi South 10.4 mph - N/A   Mostly Cloudy
3:00 PM 47 °F - 38 °F 61% 29.82 in 19 mi SSW 11.5 mph - -   Scattered Clouds
3:00 PM 46.4 °F 41.1 °F 37.4 °F 71% 29.80 in 6.2 mi SSW 11.5 mph - N/A   Mostly Cloudy
3:30 PM 46.4 °F 40.7 °F 37.4 °F 71% 29.80 in 6.2 mi SSW 12.7 mph - N/A   Mostly Cloudy
4:00 PM 47 °F - 38 °F 63% 29.83 in 19 mi South 10.4 mph - -   Scattered Clouds
4:00 PM 46.4 °F 41.5 °F 39.2 °F 76% 29.80 in 6.2 mi South 10.4 mph - N/A   Mostly Cloudy
4:30 PM 46.4 °F 41.1 °F 39.2 °F 76% 29.83 in - South 11.5 mph - N/A   Clear
5:00 PM 46 °F - 39 °F 68% 29.85 in 19 mi South 11.5 mph - -   Overcast
5:00 PM 46.4 °F 41.1 °F 39.2 °F 76% 29.83 in 6.2 mi South 11.5 mph - N/A   Overcast
5:30 PM 46.4 °F 41.5 °F 39.2 °F 76% 29.83 in 6.2 mi South 10.4 mph - N/A   Overcast
6:00 PM 46 °F - 38 °F 67% 29.83 in 19 mi South 12.7 mph - -   Overcast
6:00 PM 46.4 °F 40.7 °F 39.2 °F 76% 29.80 in 6.2 mi South 12.7 mph - N/A   Mostly Cloudy
6:30 PM 46.4 °F 40.4 °F 39.2 °F 76% 29.80 in 6.2 mi South 13.8 mph - N/A   Mostly Cloudy
7:00 PM 46 °F - 39 °F 69% 29.82 in 19 mi South 15.0 mph - -   Mostly Cloudy
7:00 PM 46.4 °F 40.1 °F 39.2 °F 76% 29.80 in 6.2 mi South 15.0 mph - N/A   Mostly Cloudy
7:30 PM 46.4 °F 39.8 °F 41.0 °F 81% 29.80 in 6.2 mi South 16.1 mph - N/A   Mostly Cloudy
8:00 PM 47 °F - 41 °F 73% 29.80 in 19 mi South 16.1 mph - -   Mostly Cloudy
8:00 PM 46.4 °F 39.8 °F 41.0 °F 81% 29.77 in 6.2 mi South 16.1 mph - N/A   Mostly Cloudy
8:30 PM 48.2 °F - 42.8 °F 82% 29.77 in 6.2 mi South 17.3 mph - N/A   Mostly Cloudy
9:00 PM 48 °F - 43 °F 77% 29.78 in 19 mi South 19.6 mph - -   Mostly Cloudy
9:00 PM 48.2 °F - 42.8 °F 82% 29.77 in 6.2 mi South 19.6 mph - N/A   Mostly Cloudy
9:30 PM 48.2 °F - 42.8 °F 82% 29.77 in 4.3 mi South 19.6 mph - N/A   Light Drizzle
10:00 PM 47 °F - 44 °F 83% 29.78 in 6 mi South 18.4 mph - - Rain Light Drizzle
10:00 PM 46.4 °F 39.2 °F 42.8 °F 87% 29.77 in 5.6 mi South 18.4 mph - N/A   Light Drizzle
10:30 PM 46.4 °F 39.5 °F 44.6 °F 93% 29.77 in 5.6 mi South 17.3 mph - N/A   Mostly Cloudy
11:00 PM 46 °F - 44 °F 89% 29.78 in 4 mi South 17.3 mph - - Rain Light Drizzle
11:00 PM 46.4 °F 39.8 °F 44.6 °F 93% 29.74 in 3.7 mi South 16.1 mph - N/A   Light Drizzle
11:30 PM 46.4 °F 39.2 °F 44.6 °F 93% 29.74 in 2.5 mi South 18.4 mph - N/A   Light Drizzle